[[{"header":{"parameterUnit":"m.s-1","parameterCategory":1,"la1":30.2991,"la2":30.254,"lo1":-89.0895,"lo2":-89.0444,"dy":0.0017,"dx":0.0017,"nx":28,"ny":28,"refTime":"2024-05-17T21:00:00:Z","depth":0,"parameterNumber":2,"parameterNumberName":"U-component_of_WINDS"},"data":[0,0,0,0,0,0,0,0,0,0,0,0,0,0,0,0,0,0,0,0,0,0,0,0,0,0,0,0,0,0,0,0,0,0,0,0,0,0,0,0,0,0,0,0,0,0,0,0,0,0,0,0,0,0,0,0,0,0,0.1991,0.1992,0,0.2091,0.2092,0.2093,0.2121,0.212,0.212,0.2119,0.2225,0.2228,0.2231,0,0,0,0,0,0,0,0,0,0,0,0,0,0.1825,0.1828,0.1991,0.1992,0.1993,0.2091,0.2092,0.2094,0.2121,0.212,0.212,0.2119,0.2223,0.2227,0.2231,0,0,0,0,0,0,0,0,0,0,0,0,0,0.1909,0.1829,0.1991,0.2019,0.2022,0.2091,0.2092,0.2094,0.2121,0.212,0.2119,0.2119,0.2222,0.2227,0.2232,0.2281,0,0,0.2247,0.225,0,0,0,0,0,0,0,0,0.1904,0.1915,0.2013,0.2017,0.2021,0.2093,0.2073,0.2157,0.2121,0.2084,0.2119,0.2118,0.2182,0.219,0.2211,0.2286,0.229,0.2248,0.2251,0.2253,0.2255,0,0,0,0,0,0,0,0.1898,0.1911,0.2031,0.2015,0.2019,0.2027,0.2038,0.2089,0.2136,0.2087,0.2089,0.21,0.2183,0.2206,0.2213,0.2292,0.2248,0.2252,0.2255,0.2257,0.2413,0.2414,0,0,0,0,0,0,0.1887,0.1906,0.2027,0.2034,0.1959,0.2031,0.2043,0.207,0.2136,0.2145,0.2101,0.2101,0.2198,0.2207,0.2217,0.2279,0.2253,0.2258,0.2261,0.2411,0.2413,0.2414,0,0,0,0,0,0,0.1883,0.1898,0.2023,0.197,0.1987,0.2034,0.2065,0.2073,0.2095,0.2147,0.2156,0.2115,0.2197,0.221,0.2265,0.2283,0.226,0.2265,0.241,0.2412,0.2413,0.2403,0,0,0,0,0,0,0.1879,0.1896,0.1915,0.197,0.1989,0.2068,0.2066,0.2076,0.2104,0.2105,0.2162,0.2171,0.2198,0.2257,0.227,0.229,0.2269,0.2409,0.2411,0.2413,0.2402,0.2404,0.2406,0,0,0,0,0,0.1873,0.1908,0.1915,0.193,0.2013,0.2069,0.208,0.211,0.2105,0.2124,0.2157,0.2169,0.2279,0.2262,0.2277,0.2299,0.2408,0.241,0.2413,0.2401,0.2404,0.2406,0,0,0,0,0,0,0.1854,0.1916,0.1925,0.1979,0.2019,0.2074,0.2099,0.2112,0.2154,0.2154,0.2189,0.2202,0.2254,0.2282,0.2263,0.235,0.2344,0.2349,0.233,0.2333,0.2335,0.2327,0.2273,0,0,0,0,0,0.1856,0.1896,0.1948,0.1991,0.201,0.2051,0.2077,0.2096,0.2139,0.2156,0.2193,0.2235,0.2279,0.2307,0.2351,0.2406,0.2419,0.2428,0.243,0.2431,0.2436,0.2468,0.2473,0.2422,0.2422,0.2422,0,0,0.1862,0.19,0.1923,0.1988,0.2021,0.2062,0.2065,0.2108,0.2139,0.2163,0.2217,0.2245,0.2294,0.2349,0.2376,0.2374,0.2453,0.2434,0.2435,0.2439,0.2471,0.2476,0.248,0.2424,0.2424,0.2423,0,0,0.1892,0.1925,0.1965,0.1997,0.2047,0.2074,0.2083,0.2136,0.2156,0.221,0.2229,0.2266,0.2341,0.2376,0.2403,0.2446,0.2459,0.2459,0.247,0.2501,0.2505,0.2509,0.2525,0.253,0.2464,0.2464,0.2464,0,0.1892,0.1954,0.1984,0.2026,0.2054,0.2076,0.2117,0.2148,0.2209,0.2229,0.2226,0.2321,0.2355,0.2419,0.243,0.2451,0.2463,0.2454,0.2502,0.2506,0.251,0.2526,0.2532,0.2463,0.2464,0.2464,0.2464,0,0.1953,0.1995,0.2021,0.2079,0.2111,0.2152,0.2189,0.2217,0.2234,0.2261,0.2316,0.2358,0.2411,0.2427,0.2444,0.2494,0.2491,0.2495,0.249,0.2514,0.253,0.2536,0.2463,0.2463,0.2463,0.2463,0,0,0.1975,0.2048,0.2057,0.2084,0.214,0.2174,0.2217,0.2267,0.2291,0.2333,0.237,0.2433,0.2436,0.2467,0.2488,0.2515,0.2547,0.2515,0.2517,0.252,0.2606,0.2603,0.261,0.2556,0.2557,0.2558,0.2602,0,0.2013,0.2089,0.2117,0.218,0.222,0.2241,0.2279,0.2318,0.2345,0.2383,0.2413,0.2457,0.2458,0.2477,0.2504,0.2538,0.2565,0.2535,0.2592,0.2594,0.258,0.2618,0.2616,0.2655,0.2608,0.2609,0.261,0,0.2067,0.2109,0.2176,0.2227,0.2245,0.2278,0.2327,0.2363,0.2408,0.2425,0.246,0.2479,0.2525,0.2516,0.2581,0.256,0.2585,0.2605,0.2607,0.2614,0.2604,0.2627,0.2668,0.2674,0.262,0.2619,0.2618,0,0.2078,0.215,0.22,0.2222,0.2283,0.2306,0.2332,0.2376,0.2405,0.2448,0.2467,0.2515,0.2541,0.2578,0.261,0.26,0.2672,0.2666,0.2689,0.2688,0.2704,0.2703,0.2751,0.2719,0.2719,0.2719,0.2718,0,0.2118,0.2158,0.2205,0.2236,0.2282,0.2314,0.2358,0.2387,0.2425,0.2463,0.2484,0.2519,0.2558,0.2598,0.2623,0.2673,0.2685,0.2701,0.2708,0.27,0.2698,0.2717,0.2716,0.272,0.272,0.2719,0.2719,0,0.2137,0.217,0.2226,0.2279,0.2293,0.2325,0.2371,0.2402,0.2429,0.2476,0.2488,0.2532,0.258,0.2615,0.2677,0.2694,0.2749,0.2755,0.2733,0.2737,0.2758,0.2756,0.2821,0.2831,0.2791,0.2792,0.2792,0,0.2161,0.2192,0.2248,0.2274,0.2301,0.2342,0.2371,0.2404,0.2434,0.2487,0.2512,0.2561,0.2602,0.2678,0.2716,0.2764,0.2772,0.2792,0.2779,0.2771,0.2773,0.2771,0.2775,0.2793,0.2794,0.2794,0.2794,0,0.2199,0.2214,0.2255,0.2302,0.2336,0.2374,0.2413,0.2433,0.2473,0.2506,0.2555,0.2586,0.265,0.2699,0.275,0.2779,0.2794,0.2797,0.2806,0.2798,0.2785,0.2793,0.2739,0.2796,0.2796,0.2796,0.2796,0.2796,0.2222,0.2251,0.2295,0.234,0.2373,0.2409,0.244,0.2472,0.2513,0.2566,0.2583,0.2634,0.2679,0.2749,0.2779,0.282,0.2819,0.283,0.2834,0.2836,0.2836,0.2777,0.2829,0.2829,0.2829,0.2829,0.2829,0,0.2262,0.2291,0.2332,0.2386,0.2421,0.2431,0.2475,0.2504,0.2548,0.2588,0.2628,0.2685,0.2733,0.2774,0.2824,0.2849,0.2857,0.2861,0.286,0.2866,0.2833,0.2822,0.2853,0.2853,0.2853,0.2853,0.2853,0.2853,0.2287,0.2337,0.2357,0.2423,0.2453,0.2502,0.2527,0.256,0.2592,0.2654,0.2694,0.272,0.2761,0.2814,0.2858,0.287,0.2887,0.289,0.2902,0.2871,0.2868,0.2866,0.2855,0.2893,0.2893,0.2932,0.2932,0.2933]},{"header":{"parameterUnit":"m.s-1","parameterCategory":1,"la1":30.2991,"la2":30.254,"lo1":-89.0895,"lo2":-89.0444,"dy":0.0017,"dx":0.0017,"nx":28,"ny":28,"refTime":"2024-05-17T21:00:00:Z","depth":0,"parameterNumber":3,"parameterNumberName":"V-component_of_WINDS"},"data":[0,0,0,0,0,0,0,0,0,0,0,0,0,0,0,0,0,0,0,0,0,0,0,0,0,0,0,0,0,0,0,0,0,0,0,0,0,0,0,0,0,0,0,0,0,0,0,0,0,0,0,0,0,0,0,0,0,0,0.8409,0.8409,0,0.8416,0.8416,0.8416,0.8418,0.8418,0.8418,0.8418,0.8424,0.8424,0.8424,0,0,0,0,0,0,0,0,0,0,0,0,0,0.8396,0.8397,0.8409,0.8409,0.841,0.8416,0.8416,0.8416,0.8418,0.8418,0.8418,0.8418,0.8424,0.8424,0.8424,0,0,0,0,0,0,0,0,0,0,0,0,0,0.8402,0.8397,0.8409,0.8411,0.8412,0.8416,0.8416,0.8416,0.8418,0.8418,0.8418,0.8418,0.8424,0.8424,0.8424,0.8427,0,0,0.8425,0.8425,0,0,0,0,0,0,0,0,0.8402,0.8403,0.8411,0.8411,0.8411,0.8416,0.8414,0.842,0.8418,0.8416,0.8418,0.8418,0.8421,0.8422,0.8423,0.8428,0.8428,0.8425,0.8426,0.8426,0.8426,0,0,0,0,0,0,0,0.8402,0.8403,0.8412,0.8411,0.8411,0.8411,0.8412,0.8415,0.8419,0.8416,0.8416,0.8417,0.8422,0.8423,0.8423,0.8428,0.8425,0.8426,0.8426,0.8426,0.8434,0.8434,0,0,0,0,0,0,0.8401,0.8402,0.8412,0.8412,0.8407,0.8411,0.8412,0.8415,0.8419,0.8419,0.8417,0.8417,0.8423,0.8423,0.8424,0.8427,0.8426,0.8426,0.8426,0.8434,0.8434,0.8434,0,0,0,0,0,0,0.8401,0.8402,0.8412,0.8407,0.8408,0.8412,0.8414,0.8415,0.8416,0.8419,0.842,0.8418,0.8422,0.8423,0.8426,0.8427,0.8426,0.8426,0.8434,0.8434,0.8434,0.8434,0,0,0,0,0,0,0.84,0.8402,0.8404,0.8407,0.8409,0.8415,0.8414,0.8415,0.8417,0.8417,0.842,0.8421,0.8423,0.8426,0.8427,0.8428,0.8427,0.8434,0.8434,0.8434,0.8434,0.8434,0.8434,0,0,0,0,0,0.84,0.8403,0.8404,0.8405,0.8411,0.8415,0.8416,0.8418,0.8417,0.8418,0.842,0.8421,0.8427,0.8426,0.8427,0.8428,0.8434,0.8434,0.8434,0.8434,0.8434,0.8434,0,0,0,0,0,0,0.84,0.8404,0.8404,0.8409,0.8411,0.8415,0.8417,0.8418,0.842,0.842,0.8422,0.8423,0.8426,0.8427,0.8426,0.8431,0.843,0.843,0.843,0.843,0.843,0.843,0.8427,0,0,0,0,0,0.84,0.8403,0.8406,0.841,0.8411,0.8414,0.8416,0.8417,0.8419,0.842,0.8422,0.8425,0.8427,0.8428,0.8431,0.8434,0.8434,0.8435,0.8435,0.8435,0.8435,0.8436,0.8436,0.8434,0.8434,0.8434,0,0,0.8401,0.8404,0.8406,0.841,0.8412,0.8415,0.8415,0.8418,0.842,0.8421,0.8424,0.8425,0.8427,0.843,0.8432,0.8432,0.8436,0.8435,0.8435,0.8435,0.8436,0.8436,0.8437,0.8434,0.8434,0.8434,0,0,0.8405,0.8407,0.841,0.8412,0.8415,0.8416,0.8417,0.842,0.8421,0.8424,0.8425,0.8426,0.843,0.8432,0.8433,0.8435,0.8436,0.8436,0.8437,0.8438,0.8438,0.8438,0.8438,0.8439,0.8436,0.8436,0.8436,0,0.8406,0.841,0.8412,0.8415,0.8416,0.8417,0.842,0.8421,0.8425,0.8425,0.8425,0.843,0.8431,0.8434,0.8435,0.8435,0.8436,0.8436,0.8438,0.8438,0.8438,0.8439,0.8439,0.8436,0.8436,0.8436,0.8436,0,0.8411,0.8414,0.8416,0.842,0.8421,0.8424,0.8425,0.8427,0.8427,0.8428,0.843,0.8432,0.8435,0.8435,0.8436,0.8438,0.8437,0.8437,0.8437,0.8438,0.8439,0.8439,0.8436,0.8436,0.8436,0.8436,0,0,0.8417,0.8419,0.842,0.8421,0.8424,0.8426,0.8428,0.843,0.8431,0.8433,0.8434,0.8437,0.8436,0.8438,0.8438,0.8439,0.844,0.8439,0.8439,0.8439,0.8442,0.8442,0.8443,0.844,0.844,0.844,0.8442,0,0.8421,0.8425,0.8426,0.843,0.8432,0.8431,0.8433,0.8434,0.8435,0.8436,0.8437,0.8439,0.8438,0.8439,0.8439,0.844,0.8441,0.844,0.8441,0.8441,0.8441,0.8443,0.8444,0.8446,0.8442,0.8442,0.8442,0,0.8427,0.8428,0.8432,0.8433,0.8434,0.8436,0.8437,0.8439,0.844,0.844,0.8441,0.8441,0.8442,0.8441,0.8443,0.8442,0.8442,0.8442,0.8442,0.8443,0.8442,0.8444,0.8446,0.8446,0.8442,0.8442,0.8442,0,0.843,0.8433,0.8436,0.8437,0.8438,0.8439,0.844,0.844,0.8441,0.8442,0.8443,0.8443,0.8444,0.8444,0.8444,0.8444,0.8446,0.8445,0.8446,0.8446,0.8447,0.8447,0.8449,0.8446,0.8446,0.8446,0.8446,0,0.8435,0.8438,0.8437,0.8439,0.8441,0.8441,0.8443,0.8444,0.8444,0.8445,0.8444,0.8445,0.8445,0.8446,0.8445,0.8446,0.8447,0.8446,0.8446,0.8447,0.8447,0.8448,0.8448,0.8446,0.8446,0.8446,0.8446,0,0.844,0.844,0.8443,0.8443,0.8443,0.8445,0.8445,0.8446,0.8446,0.8448,0.8448,0.8448,0.8448,0.8448,0.8448,0.8448,0.8449,0.8449,0.8449,0.8449,0.845,0.845,0.8454,0.8454,0.845,0.8451,0.8451,0,0.8444,0.8446,0.8446,0.8447,0.8447,0.8448,0.8449,0.8448,0.8449,0.8449,0.845,0.845,0.8451,0.8452,0.8451,0.8451,0.8451,0.8452,0.8451,0.8451,0.8451,0.8452,0.8452,0.8453,0.8453,0.8453,0.8453,0,0.845,0.845,0.8451,0.8452,0.8452,0.8453,0.8453,0.8454,0.8453,0.8453,0.8454,0.8454,0.8454,0.8455,0.8454,0.8454,0.8453,0.8453,0.8453,0.8454,0.8454,0.8454,0.845,0.8453,0.8453,0.8453,0.8453,0.8453,0.8455,0.8456,0.8456,0.8457,0.8457,0.8457,0.8458,0.8458,0.8458,0.8458,0.8457,0.8458,0.8457,0.8457,0.8456,0.8456,0.8456,0.8456,0.8456,0.8457,0.8457,0.8454,0.8456,0.8456,0.8456,0.8456,0.8456,0,0.8461,0.8461,0.8462,0.8462,0.8463,0.8461,0.8461,0.8461,0.8462,0.8461,0.8462,0.8462,0.8461,0.846,0.846,0.846,0.8459,0.846,0.846,0.846,0.8457,0.8457,0.846,0.846,0.846,0.846,0.846,0.846,0.8465,0.8467,0.8466,0.8467,0.8467,0.8468,0.8468,0.8467,0.8467,0.8467,0.8467,0.8466,0.8464,0.8464,0.8463,0.8463,0.8463,0.8463,0.8463,0.8461,0.846,0.846,0.846,0.8463,0.8463,0.8465,0.8465,0.8465]}]]